Terminal Aerodrome Forecast
Issued by NWS Milwaukee/Sullivan, WI

Home | Current Version | Previous Version | Text Only | Print | Product List | Glossary On
Versions: 1 2 3 4 5 6 7 8 9 10 11 12 13 14 15 16 17 18 19 20 21 22 23 24 25 26 27 28 29 30 31 32 33 34 35 36 37 38 39 40 41 42 43 44 45 46 47 48 49 50
068
FTUS43 KMKX 131720
TAFMKE
TAF
KMKE 131720Z 1318/1424 31010KT P6SM SKC
     FM140000 30006KT P6SM SKC
     FM140500 00000KT P6SM SKC
     FM141300 17006KT P6SM BKN150
     FM141500 17011KT P6SM -SN OVC070
     FM141800 16014KT 3SM -SN OVC035
     FM141900 16015KT 2SM -SN OVC020
     FM142000 15015KT 1SM -SN OVC012=

USA.gov is the U.S. government's official web portal to all federal, state and local government web resources and services.